Pellston, MI

8:10 PM EDT on May 24, 2017 (GMT -0400)
Pellston Regional Airport Of Emmet County

Weather History for KPLN - May, 2013

Change the Weather History Date:

Thursday, May 30, 2013

  Actual Average Record
Temperature  
Mean Temperature 70 °F -  
Max Temperature 88 °F 68 °F 89 °F (2007)
Min Temperature 51 °F 45 °F 28 °F (1948)
Cooling Degree Days 4    
Growing Degree Days 20 (Base 50)    
Moisture  
Dew Point 57 °F    
Average Humidity 83    
Maximum Humidity 100    
Minimum Humidity 42    
Precipitation  
Precipitation 0.23 in - - ()
Sea Level Pressure  
Sea Level Pressure 29.92 in    
Wind  
Wind Speed 2 mph (South)    
Max Wind Speed 15 mph    
Max Gust Speed 41 mph    
Visibility 5 miles    
Events Fog , Rain , Thunderstorm    
Averages and records for this station are not official NWS values.
T = Trace of Precipitation, MM = Missing Value Source: NWS Daily Summary

Daily Weather History Graph

Daily Weather History Graph

Search for Another Location

Airport or City:

Trip Planner

Search our weather history database for the weather conditions in past years. The results will help you decide how hot, cold, wet, or windy it might be!

Date:

Astronomy

May. 30, 2013 Rise Set
Actual Time 5:54 AM EDT 9:19 PM EDT
Civil Twilight 5:17 AM EDT 9:56 PM EDT
Nautical Twilight 4:29 AM EDT 10:44 PM EDT
Astronomical Twilight 3:28 AM EDT 11:46 PM EDT
Moon 1:09 AM EDT (5/30) 12:14 PM EDT (5/30)
Length of Visible Light 16h 38m
Length of Day
15h 24m
Waning Gibbous, 62% of the Moon is Illuminated
May 30
Waning Gibbous
May 31
Last Quarter
Jun 8
New
Jun 16
First Quarter
Jun 23
Full

Hourly Weather History & Observations

Time (EDT) Temp. Heat Index Dew Point Humidity Pressure Visibility Wind Dir Wind Speed Gust Speed Precip Events Conditions
12:26 AM 51.8 °F - 51.8 °F 100% 29.93 in 0.5 mi Calm Calm - N/A Fog Fog
12:42 AM 51.8 °F - 51.8 °F 100% 29.93 in 0.5 mi Calm Calm - N/A Fog Fog
12:54 AM 53.1 °F - 51.1 °F 93% 29.94 in 0.8 mi Calm Calm - N/A   Mist
1:10 AM 51.8 °F - 50.0 °F 94% 29.94 in 0.5 mi Calm Calm - N/A Fog Fog
1:49 AM 51.8 °F - 51.8 °F 100% 29.95 in 0.2 mi Calm Calm - N/A Fog Fog
1:54 AM 53.1 °F - 51.1 °F 93% 29.95 in 0.5 mi Calm Calm - N/A Fog Fog
2:17 AM 51.8 °F - 50.0 °F 94% 29.94 in 0.2 mi Calm Calm - N/A Fog Fog
2:39 AM 51.8 °F - 50.0 °F 94% 29.94 in 1.0 mi Calm Calm - N/A   Mist
2:48 AM 51.8 °F - 51.8 °F 100% 29.94 in 0.2 mi Calm Calm - N/A Fog Fog
2:49 AM 52.0 °F - 51.1 °F 97% 29.94 in 0.2 mi Calm Calm - N/A Fog Fog
3:15 AM 51.8 °F - 50.0 °F 94% 29.94 in 0.5 mi Calm Calm - N/A Fog Fog
3:42 AM 51.8 °F - 50.0 °F 94% 29.93 in 2.0 mi Calm Calm - N/A   Overcast
3:51 AM 51.8 °F - 50.0 °F 94% 29.93 in 4.0 mi Calm Calm - N/A   Overcast
3:54 AM 51.1 °F - 50.0 °F 96% 29.94 in 5.0 mi Calm Calm - N/A   Overcast
4:02 AM 51.8 °F - 51.8 °F 100% 29.93 in 1.5 mi Calm Calm - N/A   Overcast
4:10 AM 53.6 °F - 51.8 °F 94% 29.93 in 0.2 mi Calm Calm - N/A Fog Fog
4:20 AM 53.6 °F - 51.8 °F 94% 29.93 in 0.2 mi Calm Calm - N/A Fog Fog
4:54 AM 52.0 °F - 51.1 °F 97% 29.93 in 0.2 mi Calm Calm - N/A Fog Fog
5:08 AM 51.8 °F - 51.8 °F 100% 29.93 in 0.5 mi Calm Calm - N/A Fog Fog
5:18 AM 51.8 °F - 51.8 °F 100% 29.93 in 1.0 mi Calm Calm - N/A   Mist
5:29 AM 53.6 °F - 51.8 °F 94% 29.93 in 2.5 mi Calm Calm - N/A   Overcast
5:45 AM 51.8 °F - 50.0 °F 94% 29.93 in 0.8 mi Calm Calm - N/A   Mist
5:54 AM 52.0 °F - 51.1 °F 97% 29.94 in 0.5 mi Calm Calm - N/A Fog Fog
6:14 AM 51.8 °F - 50.0 °F 94% 29.94 in 2.0 mi Calm Calm - N/A   Overcast
6:22 AM 51.8 °F - 50.0 °F 94% 29.94 in 7.0 mi Calm Calm - N/A   Overcast
6:31 AM 51.8 °F - 50.0 °F 94% 29.94 in 6.0 mi Calm Calm - N/A   Mostly Cloudy
6:42 AM 51.8 °F - 51.8 °F 100% 29.94 in 5.0 mi Calm Calm - N/A   Scattered Clouds
6:54 AM 54.0 °F - 52.0 °F 93% 29.94 in 5.0 mi Calm Calm - N/A   Clear
7:54 AM 59.0 °F - 57.9 °F 96% 29.94 in 7.0 mi SE 4.6 mph - N/A   Clear
8:54 AM 66.0 °F - 62.1 °F 87% 29.94 in 10.0 mi SE 3.5 mph - N/A   Clear
9:54 AM 75.9 °F - 64.9 °F 69% 29.93 in 10.0 mi Variable 5.8 mph - N/A   Clear
10:54 AM 79.0 °F - 63.0 °F 58% 29.93 in 10.0 mi SW 11.5 mph 19.6 mph N/A   Scattered Clouds
11:54 AM 82.0 °F 83.1 °F 63.0 °F 52% 29.93 in 10.0 mi WSW 11.5 mph 20.7 mph N/A   Clear
12:54 PM 82.9 °F 84.0 °F 63.0 °F 51% 29.93 in 10.0 mi WSW 10.4 mph 18.4 mph N/A   Scattered Clouds
1:54 PM 84.9 °F 85.4 °F 62.1 °F 46% 29.91 in 10.0 mi South 11.5 mph 18.4 mph N/A   Clear
2:54 PM 87.1 °F 87.5 °F 62.1 °F 43% 29.88 in 10.0 mi SW 11.5 mph 18.4 mph N/A   Partly Cloudy
3:54 PM 88.0 °F 88.4 °F 62.1 °F 42% 29.87 in 10.0 mi SSW 11.5 mph - N/A   Partly Cloudy
4:44 PM 84.2 °F 85.0 °F 62.6 °F 48% 29.86 in 10.0 mi SSW 6.9 mph - N/A Thunderstorm Scattered Clouds
4:54 PM 84.0 °F 84.9 °F 63.0 °F 49% 29.88 in 9.0 mi South 15.0 mph 27.6 mph N/A Thunderstorm Thunderstorm
5:02 PM 71.6 °F - 64.4 °F 78% 29.89 in 1.0 mi South 15.0 mph 41.4 mph 0.14 in Rain , Thunderstorm Thunderstorms and Rain
5:16 PM 73.4 °F - 66.2 °F 78% 29.88 in 5.0 mi ESE 3.5 mph - 0.23 in Rain , Thunderstorm Light Thunderstorms and Rain
5:33 PM 75.2 °F - 69.8 °F 83% 29.88 in 10.0 mi East 6.9 mph - 0.23 in   Partly Cloudy
5:54 PM 77.0 °F - 69.1 °F 76% 29.87 in 10.0 mi South 4.6 mph - 0.23 in   Partly Cloudy
6:54 PM 79.0 °F - 68.0 °F 69% 29.86 in 10.0 mi South 6.9 mph - N/A   Clear
7:54 PM 80.1 °F 82.9 °F 69.1 °F 69% 29.86 in 10.0 mi South 10.4 mph 19.6 mph N/A   Clear
8:54 PM 75.9 °F - 64.9 °F 69% 29.87 in 10.0 mi South 5.8 mph - N/A   Clear
9:54 PM 75.0 °F - 66.0 °F 73% 29.86 in 10.0 mi South 6.9 mph - N/A   Clear
10:54 PM 73.0 °F - 66.0 °F 79% 29.88 in 10.0 mi SSE 5.8 mph - N/A   Clear
11:54 PM 73.9 °F - 64.9 °F 73% 29.87 in 10.0 mi SSE 5.8 mph - 0.00 in   Clear